• In Österreich
  • Länderverzeichnis
  • Für 7 Tage
  • Wassertemperatur
  • Satellitenkarten
  • Wetterkarte
  • News
  • Widgets
  • user-avatar
    Anmelden

    Stündliche Wetter Pobeda

    Heute, 23 Juli, Montag

    Zeit Temperatur Niederschläge Wind Luftdruck Luftfeuchtigkeit
    00:00 +18°C° 0 mm 2 m/S 739 mmHg 98%
    01:00 +17°C° 0 mm 2 m/S 739 mmHg 98%
    02:00 +17°C° 0 mm 2 m/S 739 mmHg 98%
    03:00 +17°C° 0 mm 2 m/S 739 mmHg 98%
    04:00 +17°C° 0 mm 2 m/S 739 mmHg 98%
    05:00 +17°C° 0 mm 2 m/S 740 mmHg 98%
    06:00 +18°C° 0 mm 2 m/S 740 mmHg 95%
    07:00 +19°C° 0 mm 3 m/S 740 mmHg 92%
    08:00 +20°C° 0 mm 3 m/S 740 mmHg 89%
    09:00 +20°C° 0,1 mm 3 m/S 740 mmHg 86%
    10:00 +20°C° 0,1 mm 3 m/S 740 mmHg 84%
    11:00 +21°C° 0,1 mm 4 m/S 740 mmHg 81%
    12:00 +21°C° 0,1 mm 4 m/S 740 mmHg 80%
    13:00 +21°C° 0,1 mm 4 m/S 740 mmHg 78%
    14:00 +22°C° 0,1 mm 4 m/S 740 mmHg 76%
    15:00 +22°C° 0,2 mm 3 m/S 740 mmHg 78%
    16:00 +22°C° 0,2 mm 3 m/S 740 mmHg 79%
    17:00 +22°C° 0,2 mm 3 m/S 740 mmHg 81%
    18:00 +20°C° 0,1 mm 3 m/S 740 mmHg 85%
    19:00 +19°C° 0,1 mm 2 m/S 740 mmHg 90%
    20:00 +18°C° 0,1 mm 2 m/S 741 mmHg 94%
    21:00 +18°C° 0 mm 2 m/S 741 mmHg 94%
    22:00 +17°C° 0 mm 2 m/S 741 mmHg 95%
    23:00 +17°C° 0 mm 2 m/S 741 mmHg 95%

    Morgen, 24 Juli, Dienstag

    Zeit Temperatur Niederschläge Wind Luftdruck Luftfeuchtigkeit
    00:00 +17°C° 0 mm 2 m/S 741 mmHg 96%
    01:00 +17°C° 0 mm 2 m/S 741 mmHg 97%
    02:00 +17°C° 0 mm 2 m/S 740 mmHg 97%
    03:00 +16°C° 0 mm 2 m/S 741 mmHg 97%
    04:00 +16°C° 0 mm 3 m/S 741 mmHg 97%
    05:00 +16°C° 0 mm 3 m/S 741 mmHg 97%
    06:00 +17°C° 0 mm 3 m/S 741 mmHg 96%
    07:00 +17°C° 0 mm 3 m/S 741 mmHg 94%
    08:00 +18°C° 0 mm 3 m/S 741 mmHg 93%
    09:00 +18°C° 0 mm 3 m/S 741 mmHg 91%
    10:00 +19°C° 0 mm 3 m/S 742 mmHg 89%
    11:00 +20°C° 0 mm 3 m/S 742 mmHg 87%
    12:00 +21°C° 0,1 mm 3 m/S 742 mmHg 85%
    13:00 +21°C° 0,1 mm 3 m/S 742 mmHg 82%
    14:00 +22°C° 0,1 mm 3 m/S 741 mmHg 80%
    15:00 +22°C° 0,3 mm 3 m/S 741 mmHg 82%
    16:00 +22°C° 0,3 mm 3 m/S 741 mmHg 83%
    17:00 +22°C° 0,3 mm 3 m/S 741 mmHg 85%
    18:00 +21°C° 0,2 mm 2 m/S 742 mmHg 89%
    19:00 +21°C° 0,2 mm 2 m/S 742 mmHg 92%
    20:00 +20°C° 0,2 mm 2 m/S 742 mmHg 95%
    21:00 +19°C° 0 mm 2 m/S 742 mmHg 96%
    22:00 +19°C° 0 mm 2 m/S 742 mmHg 97%
    23:00 +18°C° 0 mm 2 m/S 742 mmHg 98%

    übermorgen, 25 Juli, Mittwoch

    Zeit Temperatur Niederschläge Wind Luftdruck Luftfeuchtigkeit
    00:00 +19°C° 0 mm 1 m/S 742 mmHg 98%
    01:00 +19°C° 0 mm 1 m/S 742 mmHg 98%
    02:00 +18°C° 0 mm 1 m/S 742 mmHg 98%
    03:00 +18°C° 0 mm 2 m/S 742 mmHg 98%
    04:00 +18°C° 0 mm 2 m/S 743 mmHg 99%
    05:00 +18°C° 0 mm 2 m/S 743 mmHg 99%
    06:00 +19°C° 0 mm 2 m/S 743 mmHg 96%
    07:00 +21°C° 0 mm 2 m/S 743 mmHg 93%
    08:00 +23°C° 0 mm 2 m/S 743 mmHg 90%
    09:00 +24°C° 0,3 mm 2 m/S 743 mmHg 86%
    10:00 +25°C° 0,3 mm 3 m/S 743 mmHg 83%
    11:00 +26°C° 0,3 mm 3 m/S 743 mmHg 79%
    12:00 +26°C° 0,7 mm 3 m/S 743 mmHg 79%
    13:00 +26°C° 0,7 mm 3 m/S 743 mmHg 79%
    14:00 +26°C° 0,7 mm 3 m/S 743 mmHg 78%
    15:00 +26°C° 0,6 mm 3 m/S 744 mmHg 79%
    16:00 +26°C° 0,6 mm 2 m/S 744 mmHg 81%
    17:00 +26°C° 0,6 mm 2 m/S 744 mmHg 82%
    18:00 +24°C° 0,1 mm 2 m/S 744 mmHg 83%
    19:00 +23°C° 0,1 mm 2 m/S 744 mmHg 85%
    20:00 +20°C° 0,1 mm 2 m/S 744 mmHg 87%
    21:00 +19°C° 0 mm 2 m/S 744 mmHg 86%
    22:00 +19°C° 0 mm 2 m/S 745 mmHg 85%
    23:00 +18°C° 0 mm 2 m/S 745 mmHg 83%

    26 Juli, Donnerstag

    Zeit Temperatur Niederschläge Wind Luftdruck Luftfeuchtigkeit
    00:00 +18°C° 0 mm 2 m/S 745 mmHg 81%
    01:00 +18°C° 0 mm 3 m/S 744 mmHg 78%
    02:00 +18°C° 0 mm 3 m/S 744 mmHg 75%
    03:00 +18°C° 0 mm 3 m/S 744 mmHg 76%
    04:00 +18°C° 0 mm 3 m/S 745 mmHg 78%
    05:00 +18°C° 0 mm 3 m/S 745 mmHg 79%
    06:00 +20°C° 0 mm 3 m/S 745 mmHg 77%
    07:00 +21°C° 0 mm 4 m/S 745 mmHg 74%
    08:00 +23°C° 0 mm 4 m/S 745 mmHg 72%
    09:00 +25°C° 0 mm 4 m/S 745 mmHg 67%
    10:00 +27°C° 0 mm 4 m/S 745 mmHg 63%
    11:00 +28°C° 0 mm 4 m/S 745 mmHg 58%
    12:00 +29°C° 0 mm 4 m/S 745 mmHg 58%
    13:00 +29°C° 0 mm 4 m/S 745 mmHg 58%
    14:00 +29°C° 0 mm 4 m/S 745 mmHg 58%
    15:00 +29°C° 0,1 mm 3 m/S 745 mmHg 63%
    16:00 +28°C° 0,1 mm 3 m/S 745 mmHg 68%
    17:00 +27°C° 0,1 mm 3 m/S 745 mmHg 73%
    18:00 +26°C° 0,4 mm 3 m/S 745 mmHg 77%
    19:00 +24°C° 0,4 mm 2 m/S 745 mmHg 82%
    20:00 +23°C° 0,4 mm 2 m/S 745 mmHg 87%
    21:00 +21°C° 0 mm 2 m/S 745 mmHg 88%
    22:00 +21°C° 0 mm 2 m/S 745 mmHg 90%
    23:00 +20°C° 0 mm 2 m/S 746 mmHg 91%

    27 Juli, Freitag

    Zeit Temperatur Niederschläge Wind Luftdruck Luftfeuchtigkeit
    00:00 +19°C° 0 mm 2 m/S 746 mmHg 92%
    01:00 +19°C° 0 mm 2 m/S 746 mmHg 94%
    02:00 +18°C° 0 mm 2 m/S 746 mmHg 95%
    03:00 +18°C° 0 mm 2 m/S 746 mmHg 94%
    04:00 +19°C° 0 mm 2 m/S 746 mmHg 94%
    05:00 +19°C° 0 mm 2 m/S 746 mmHg 94%
    06:00 +20°C° 0 mm 2 m/S 746 mmHg 89%
    07:00 +23°C° 0 mm 2 m/S 747 mmHg 85%
    08:00 +25°C° 0 mm 2 m/S 747 mmHg 80%
    09:00 +26°C° 0,3 mm 3 m/S 747 mmHg 76%
    10:00 +27°C° 0,3 mm 3 m/S 747 mmHg 71%
    11:00 +29°C° 0,3 mm 3 m/S 747 mmHg 67%
    12:00 +29°C° 0,6 mm 3 m/S 747 mmHg 66%
    13:00 +29°C° 0,6 mm 3 m/S 747 mmHg 64%
    14:00 +29°C° 0,6 mm 3 m/S 747 mmHg 63%
    15:00 +29°C° 0,2 mm 3 m/S 747 mmHg 66%
    16:00 +29°C° 0,2 mm 2 m/S 747 mmHg 68%
    17:00 +28°C° 0,2 mm 2 m/S 747 mmHg 71%
    18:00 +27°C° 0,2 mm 2 m/S 747 mmHg 76%
    19:00 +25°C° 0,2 mm 2 m/S 748 mmHg 81%
    20:00 +23°C° 0,2 mm 2 m/S 748 mmHg 86%
    21:00 +23°C° 0 mm 1 m/S 748 mmHg 87%
    22:00 +22°C° 0 mm 1 m/S 748 mmHg 88%
    23:00 +22°C° 0 mm 1 m/S 748 mmHg 89%

    28 Juli, Samstag

    Zeit Temperatur Niederschläge Wind Luftdruck Luftfeuchtigkeit
    00:00 +21°C° 0,4 mm 1 m/S 748 mmHg 91%
    01:00 +21°C° 0,4 mm 1 m/S 748 mmHg 92%
    02:00 +20°C° 0,4 mm 1 m/S 748 mmHg 93%
    03:00 +20°C° 0 mm 1 m/S 748 mmHg 93%
    04:00 +20°C° 0 mm 1 m/S 748 mmHg 93%
    05:00 +20°C° 0 mm 1 m/S 748 mmHg 93%
    06:00 +22°C° 0 mm 1 m/S 748 mmHg 88%
    07:00 +24°C° 0 mm 2 m/S 748 mmHg 83%
    08:00 +25°C° 0 mm 2 m/S 748 mmHg 78%
    09:00 +27°C° 0,1 mm 2 m/S 748 mmHg 70%
    10:00 +28°C° 0,1 mm 3 m/S 748 mmHg 61%
    11:00 +29°C° 0,1 mm 3 m/S 748 mmHg 53%
    12:00 +30°C° 0 mm 3 m/S 748 mmHg 51%
    13:00 +30°C° 0 mm 3 m/S 748 mmHg 50%
    14:00 +30°C° 0 mm 3 m/S 748 mmHg 48%
    15:00 +30°C° 0 mm 2 m/S 748 mmHg 53%
    16:00 +29°C° 0 mm 2 m/S 748 mmHg 58%
    17:00 +29°C° 0 mm 2 m/S 748 mmHg 62%
    18:00 +27°C° 0 mm 2 m/S 748 mmHg 68%
    19:00 +25°C° 0 mm 1 m/S 748 mmHg 73%
    20:00 +23°C° 0 mm 1 m/S 748 mmHg 79%
    21:00 +22°C° 0 mm 1 m/S 748 mmHg 80%
    22:00 +22°C° 0 mm 1 m/S 748 mmHg 82%
    23:00 +21°C° 0 mm 1 m/S 748 mmHg 84%
    Mehr zeigen